SWA1920 KPHX-MMSD

Flight info

Callsign SWA1920
Flight time N/A
Altitude 39000
Route STRRM1 TUS J92 HMO UJ7 CEN UJ14 ENEKO ENEKO1A
Aircraft B737/M-SADE2E3GIJ4RWZ/LB1D1

Departure

Time N/A
Airport Phoenix Sky Harbor International Airport (KPHX)

Arrival

Time 2026-05-03 20:24
Airport Los Cabos International Airport (MMSD)
Time Latitude Longitude Altitude Speed Heading
2026-05-03 20:15 23.54143 -109.48520 10466 ft 271 kts 178°
2026-05-03 20:15 23.52251 -109.48298 10235 ft 269 kts 180°
2026-05-03 20:15 23.50474 -109.48575 9991 ft 259 kts 206°
2026-05-03 20:15 23.49000 -109.49646 9616 ft 253 kts 228°
2026-05-03 20:16 23.47924 -109.51124 9234 ft 247 kts 236°
2026-05-03 20:16 23.46949 -109.52647 8861 ft 243 kts 237°
2026-05-03 20:16 23.45995 -109.54162 8512 ft 243 kts 237°
2026-05-03 20:16 23.45045 -109.55668 8167 ft 240 kts 237°
2026-05-03 20:17 23.44089 -109.57173 7812 ft 242 kts 236°
2026-05-03 20:17 23.43127 -109.58682 7471 ft 243 kts 236°
2026-05-03 20:17 23.42157 -109.60197 7102 ft 244 kts 237°
2026-05-03 20:17 23.41182 -109.61715 6743 ft 245 kts 236°
2026-05-03 20:18 23.40203 -109.63238 6387 ft 246 kts 236°
2026-05-03 20:18 23.39217 -109.64772 5993 ft 247 kts 237°
2026-05-03 20:18 23.38232 -109.66299 5639 ft 247 kts 236°
2026-05-03 20:18 23.37243 -109.67838 5265 ft 248 kts 235°
2026-05-03 20:19 23.36246 -109.69384 4908 ft 251 kts 235°
2026-05-03 20:19 23.35252 -109.70922 4530 ft 245 kts 234°
2026-05-03 20:19 23.34286 -109.72413 4169 ft 236 kts 233°
2026-05-03 20:19 23.33104 -109.73539 3801 ft 221 kts 202°
2026-05-03 20:20 23.31669 -109.73907 3466 ft 204 kts 180°
2026-05-03 20:20 23.30306 -109.73835 3232 ft 192 kts 175°
2026-05-03 20:20 23.28986 -109.73685 3067 ft 185 kts 173°
2026-05-03 20:20 23.27711 -109.73539 3020 ft 182 kts 173°
2026-05-03 20:21 23.26504 -109.73398 3029 ft 173 kts 174°
2026-05-03 20:21 23.25357 -109.73271 3060 ft 162 kts 174°
2026-05-03 20:21 23.24252 -109.73124 2842 ft 160 kts 173°
2026-05-03 20:21 23.23165 -109.73002 2494 ft 154 kts 174°
2026-05-03 20:22 23.22100 -109.72887 2022 ft 155 kts 173°
2026-05-03 20:22 23.21036 -109.72740 1743 ft 154 kts 173°
2026-05-03 20:22 23.19985 -109.72635 1363 ft 149 kts 174°
2026-05-03 20:22 23.18995 -109.72517 1019 ft 137 kts 171°
2026-05-03 20:23 23.18082 -109.72418 736 ft 127 kts 167°
2026-05-03 20:23 23.17186 -109.72305 574 ft 133 kts 164°
2026-05-03 20:23 23.16315 -109.72208 387 ft 117 kts 169°
2026-05-03 20:23 23.15617 -109.72122 365 ft 80 kts 175°
2026-05-03 20:24 23.15208 -109.72076 358 ft 38 kts 174°
2026-05-03 20:24 23.15039 -109.72056 353 ft 21 kts 173°
2026-05-03 20:24 23.14884 -109.72037 350 ft 24 kts 173°
2026-05-03 20:24 23.14702 -109.71998 351 ft 29 kts 159°
2026-05-03 20:25 23.14529 -109.71886 337 ft 26 kts 142°
2026-05-03 20:25 23.14486 -109.71806 338 ft 12 kts 49°
2026-05-03 20:25 23.14561 -109.71798 347 ft 11 kts 356°
2026-05-03 20:25 23.14636 -109.71803 353 ft 11 kts 353°
2026-05-03 20:26 23.14719 -109.71813 354 ft 13 kts 353°
2026-05-03 20:26 23.14822 -109.71824 349 ft 16 kts 354°
2026-05-03 20:26 23.14944 -109.71839 355 ft 19 kts 354°
2026-05-03 20:26 23.15082 -109.71854 359 ft 21 kts 354°
2026-05-03 20:27 23.15233 -109.71871 359 ft 23 kts 354°
2026-05-03 20:27 23.15398 -109.71890 360 ft 24 kts 354°
2026-05-03 20:27 23.15558 -109.71908 364 ft 23 kts 354°
2026-05-03 20:27 23.15708 -109.71925 371 ft 19 kts 353°
2026-05-03 20:28 23.15832 -109.71939 370 ft 13 kts
2026-05-03 20:28 23.15859 -109.71877 371 ft 7 kts 97°
2026-05-03 20:28 23.15861 -109.71822 371 ft 7 kts 83°
2026-05-03 20:28 23.15864 -109.71791 371 ft 0 kts 83°